Theta_e
314 314 314 314 314 314 314 314 314 314 314 314 314 314 314 314 314 313 313 313 313 313 313 313 314 314 314 314 314 314 314 314 314 314 314 315 315 316 315 315 315 316
314 314 314 314 313 314 314 314 314 314 313 314 313 313 313 313 313 313 313 313 313 313 313 313 313 313 313 313 313 313 313 313 313 313 314 314 314 314 314 314 314 315
314 313 313 313 313 313 313 313 313 313 313 313 313 313 313 313 313 313 313 313 313 313 313 313 313 313 313 313 313 313 313 313 313 313 313 313 313 313 313 313 313 313
313 313 313 313 313 313 313 313 313 313 313 313 313 313 313 313 313 313 313 313 313 313 313 312 312 312 312 312 312 312 312 312 313 313 313 313 313 313 313 312 313 313
313 313 313 313 313 313 313 313 313 313 313 313 313 313 313 313 313 313 313 313 313 313 313 313 313 312 312 312 312 312 312 312 312 312 312 312 312 312 312 312 312 312
313 313 313 313 313 313 313 313 313 313 313 313 313 313 313 313 313 313 313 312 313 313 313 313 313 313 313 313 312 312 312 312 312 312 312 312 312 312 311 311 311 311
312 311 311 311 311 311 311 311 311 311 311 311 311 311 311 312 312 312 312 312 312 312 312 312 312 312 312 312 313 313 313 313 313 312 313 313 312 312 312 311 311 311
310 310 310 309 309 309 309 309 309 308 309 309 309 309 309 309 310 310 310 310 311 311 311 311 311 311 311 312 312 312 312 312 312 312 312 312 312 312 312 312 311 311
309 308 308 307 307 307 307 307 306 306 306 306 306 306 306 306 306 307 307 308 308 309 309 310 310 311 311 311 311 311 311 311 312 312 312 312 312 312 312 312 312 312
307 307 306 306 306 306 305 305 305 304 304 304 304 304 304 304 304 304 304 304 305 305 306 307 308 308 309 310 310 311 311 311 311 311 311 311 311 312 312 312 312 311
306 306 305 305 305 304 304 304 303 303 303 303 302 302 302 302 302 302 302 302 302 303 303 303 304 305 305 306 307 307 308 309 309 310 310 311 311 311 311 311 311 311
305 305 305 305 304 304 303 303 302 302 302 302 301 301 301 301 301 301 301 301 301 301 302 302 302 302 303 303 303 304 304 305 306 306 307 308 309 309 310 310 310 310
305 304 304 304 303 303 302 302 302 301 301 301 301 301 301 300 300 300 300 300 300 300 300 300 301 301 301 301 301 302 302 302 303 303 304 304 305 306 307 308 309 309
303 303 303 302 302 302 302 301 301 301 301 301 300 300 300 300 300 300 299 299 299 299 299 299 299 300 300 300 300 301 301 301 301 302 302 303 303 303 304 305 306 307
302 302 301 301 301 301 301 301 301 300 300 300 300 300 299 299 299 299 299 299 299 299 299 299 299 299 299 299 300 300 300 300 301 301 301 302 302 302 303 303 304 305
301 301 301 301 301 300 300 300 300 300 299 299 299 299 299 299 299 299 299 299 299 299 298 299 299 299 299 299 299 299 300 300 300 300 300 301 301 301 302 303 303 304
300 300 300 300 300 300 299 299 299 299 299 299 299 298 298 298 298 298 298 298 298 298 298 298 298 298 298 298 299 299 299 299 300 300 300 300 300 301 301 302 303 303
300 300 299 299 299 299 298 298 298 298 298 298 298 297 297 297 297 297 297 297 297 297 297 297 297 297 297 297 297 297 298 298 299 299 299 299 300 300 300 301 302 303
299 299 298 298 298 298 298 298 297 297 297 297 297 297 297 297 297 297 296 296 296 296 296 296 296 296 296 296 296 296 296 296 297 298 298 299 299 299 299 300 302 302
298 298 297 297 297 297 297 297 297 297 297 296 296 296 296 296 296 296 296 296 296 296 296 296 296 295 295 295 295 295 295 295 295 296 297 297 298 299 299 299 301 302
297 297 297 297 297 297 297 296 296 296 296 296 296 296 296 296 296 296 296 295 295 295 295 295 295 295 294 294 294 294 294 294 294 295 295 296 297 298 299 299 300 301
297 297 297 297 296 296 296 296 295 295 295 295 295 295 295 295 295 295 295 295 295 295 294 295 295 294 294 294 294 294 294 294 294 294 294 295 295 297 298 299 299 300
297 296 296 296 295 295 295 295 295 295 295 295 295 295 295 295 295 295 295 295 295 294 294 294 294 294 293 293 293 294 295 295 295 295 294 295 295 296 297 298 299 300
296 295 295 295 295 294 294 294 294 294 294 294 294 294 294 294 294 294 294 294 294 294 294 294 294 294 293 292 293 295 296 296 296 296 295 295 296 296 297 298 299 299
294 294 294 294 293 293 293 293 293 293 293 293 293 293 293 293 293 293 294 294 293 293 293 293 293 293 293 292 292 295 297 298 297 297 296 296 297 298 298 299 299 299
293 293 293 292 292 292 292 292 292 292 292 292 292 292 292 292 292 292 293 293 293 293 293 293 293 293 293 292 292 295 297 298 298 298 297 297 298 298 298 299 299 299
Wind_Speed
5 5 5 6 6 7 8 9 10 11 12 12 13 14 14 15 16 17 18 19 20 20 20 20 21 21 22 23 24 25 27 28 29 30 33 36 38 39 41 41 42 44
4 4 5 5 6 7 8 9 10 11 12 13 14 13 14 14 14 15 17 18 19 19 19 19 19 20 21 21 23 24 25 26 27 27 29 33 35 37 38 39 41 43
5 5 5 6 6 7 8 9 9 10 11 12 13 13 14 14 14 14 15 16 17 18 19 19 20 21 21 22 23 25 26 26 27 27 29 31 33 35 36 37 39 41
6 6 6 6 7 7 8 8 9 10 10 11 12 13 13 13 14 14 14 15 16 16 17 18 20 21 22 23 25 26 27 28 29 29 31 33 33 35 36 37 39 40
6 6 7 7 7 7 8 8 9 10 11 11 12 13 14 14 14 15 15 16 16 16 16 17 18 19 20 22 24 26 27 28 29 30 32 34 34 36 37 38 40 41
6 6 6 7 7 8 8 9 10 11 12 13 14 15 16 16 17 17 17 17 17 17 17 17 18 18 19 21 22 24 25 26 28 29 31 33 34 35 36 37 39 40
6 6 7 7 8 9 10 11 12 13 14 15 16 17 18 18 19 19 19 20 19 19 19 19 19 20 20 22 23 24 25 26 27 28 30 32 33 34 34 35 38 39
5 7 7 8 9 10 11 12 12 13 14 14 15 16 17 18 19 20 20 21 21 21 22 22 22 22 23 24 24 25 26 27 28 29 31 32 33 35 35 35 37 39
6 7 8 9 10 11 12 12 13 14 14 15 16 16 17 18 19 19 20 21 21 22 22 23 23 24 25 26 27 27 29 29 30 31 32 34 35 36 36 37 38 40
7 8 9 10 11 12 13 14 15 16 16 17 17 18 19 19 20 21 21 22 22 22 23 23 24 24 25 26 27 28 30 31 31 33 34 35 36 37 38 38 39 41
8 9 10 11 13 14 15 16 17 18 19 20 20 20 21 21 21 22 23 23 23 24 24 25 25 26 26 27 28 28 30 31 32 34 35 36 37 38 39 40 40 42
9 10 11 12 14 15 16 17 18 19 20 21 22 22 23 23 23 24 25 25 25 26 26 27 27 28 28 29 30 30 31 32 33 34 35 36 38 39 39 40 41 42
10 11 13 14 15 16 17 18 19 20 20 21 22 23 24 24 25 25 26 27 28 28 29 29 30 30 31 31 32 33 33 35 35 36 37 38 38 39 39 40 42 42
10 12 13 14 16 17 18 19 20 21 22 22 23 24 25 26 27 28 28 29 30 30 31 32 33 33 34 34 35 35 36 37 38 38 39 39 40 40 40 40 40 41
11 12 14 15 16 17 18 19 20 21 23 23 24 25 26 28 29 30 31 31 32 32 33 34 35 36 37 38 39 39 40 40 41 41 41 42 42 42 41 40 40 40
13 14 15 16 18 19 20 21 22 23 24 25 26 27 28 30 31 32 33 34 35 35 36 36 37 38 39 40 41 42 43 44 45 45 44 44 45 45 44 43 41 40
15 17 18 20 21 22 23 24 26 27 28 29 30 31 32 32 34 34 35 36 37 38 39 39 39 40 41 42 43 43 45 46 48 49 48 48 47 47 47 46 44 43
18 19 21 22 23 25 26 27 29 30 31 32 33 34 34 35 36 37 37 38 39 40 41 41 41 42 42 43 44 45 45 47 49 50 51 51 51 50 50 49 47 46
18 19 21 22 24 26 27 28 30 31 32 33 34 35 35 36 37 38 38 39 40 41 42 42 42 43 43 44 45 45 46 47 48 50 51 52 52 52 52 51 49 48
20 21 23 25 26 28 29 30 31 32 33 34 35 35 36 37 37 38 39 40 41 42 43 44 44 44 44 45 45 46 47 47 48 49 50 51 52 52 52 52 51 49
23 25 26 28 29 30 31 32 33 34 34 35 36 36 37 38 38 39 40 41 42 44 45 46 46 46 45 45 46 47 48 49 49 50 51 52 52 51 51 51 50 49
27 29 30 31 32 32 33 34 34 35 35 36 37 38 38 39 40 41 42 43 44 46 48 49 49 48 47 46 46 47 48 49 50 51 53 53 53 52 51 50 49 47
29 31 32 32 33 34 34 35 36 36 37 38 39 40 40 41 41 42 43 44 45 46 48 50 50 49 48 47 46 46 47 49 50 52 53 54 54 54 52 50 48 46
29 31 32 33 34 34 35 36 36 37 38 38 39 41 41 42 43 43 43 44 45 46 47 49 50 49 49 48 47 46 46 48 49 51 53 54 54 54 52 50 49 46
28 29 31 32 33 34 35 35 36 37 37 38 39 40 41 42 43 44 45 45 45 45 46 48 49 49 48 48 47 45 45 46 48 50 52 53 53 53 52 51 49 47
26 28 29 31 32 34 34 35 36 37 38 39 40 41 42 43 44 45 46 46 46 46 46 46 47 48 47 47 46 45 44 45 46 48 49 50 51 51 51 51 49 47
Wind_Direction
36 22 10 2 353 347 341 337 333 331 328 323 321 317 310 303 296 288 283 279 276 273 270 268 267 267 267 267 266 265 266 267 267 269 269 268 270 271 271 273 273 273
19 9 2 353 345 342 337 334 332 332 333 330 329 328 324 319 311 302 293 286 282 280 276 273 271 270 269 269 268 267 268 269 270 271 270 268 269 269 271 272 271 271
15 11 7 359 352 349 342 339 339 338 339 336 333 334 334 331 326 319 310 302 295 290 285 280 277 274 272 270 268 268 268 270 272 272 270 269 268 269 271 271 270 269
19 16 14 11 7 4 357 354 354 352 351 347 343 343 343 341 339 335 330 324 319 312 305 298 292 287 283 280 276 275 275 274 274 273 271 271 270 271 272 271 271 271
21 17 15 13 8 6 1 358 356 354 351 347 344 343 342 342 340 339 338 336 334 331 326 319 312 306 300 295 291 288 288 286 285 282 280 279 278 277 276 275 275 275
17 10 6 1 354 350 345 343 340 337 336 334 333 332 332 332 331 331 331 331 331 330 328 325 322 317 312 307 304 302 300 297 295 292 288 288 286 284 282 280 279 279
10 2 357 350 346 343 339 336 334 331 329 328 326 325 325 324 324 324 323 322 322 321 320 319 317 315 313 310 308 307 305 303 301 297 294 294 292 290 288 285 284 282
3 357 354 352 349 347 343 340 337 335 335 333 331 330 329 327 326 325 323 323 321 319 317 315 313 311 310 308 307 306 305 303 302 300 299 298 296 295 295 292 290 288
0 355 354 352 349 346 345 343 341 340 340 338 338 337 336 335 333 332 330 328 327 325 322 320 318 315 313 311 309 307 305 304 303 302 300 300 299 298 298 297 295 293
356 354 351 348 345 343 343 342 340 340 339 338 337 336 335 335 333 332 331 330 329 328 326 325 323 321 319 316 313 311 308 306 305 304 302 302 302 301 301 300 298 296
349 347 345 343 342 342 341 340 339 338 337 337 336 336 335 335 334 332 331 330 330 329 328 327 326 324 322 320 317 315 312 310 309 307 305 304 303 302 302 302 300 299
338 337 338 338 339 338 337 336 336 335 334 334 333 334 333 333 334 333 332 332 332 331 330 329 328 327 325 322 321 319 317 315 313 311 309 307 306 304 303 303 302 301
331 332 333 333 333 333 332 331 331 330 330 330 329 330 330 330 331 331 332 332 332 332 331 330 330 330 328 326 325 323 320 318 316 314 312 310 309 308 306 305 304 303
328 328 329 328 327 326 325 325 325 325 325 325 325 325 326 326 327 328 328 328 329 329 329 329 330 330 329 328 327 326 323 321 319 317 315 313 311 310 308 307 306 304
328 327 326 325 324 323 322 321 321 321 321 321 322 322 323 323 323 324 324 324 324 325 325 326 326 327 327 327 327 326 324 322 321 319 318 316 314 313 311 309 306 304
329 327 326 325 324 323 323 322 322 321 321 321 321 321 321 321 321 321 321 321 321 321 320 321 321 322 322 322 323 323 322 321 319 318 318 317 315 314 313 311 309 306
328 327 326 326 325 325 324 324 323 322 322 321 321 321 320 320 320 319 319 319 319 318 318 317 317 318 317 317 317 317 317 317 316 315 316 315 315 314 314 313 312 309
326 326 326 324 324 324 323 323 323 322 321 320 319 319 319 318 318 317 317 317 316 315 315 315 315 315 315 314 313 313 313 312 311 311 311 312 312 313 312 313 313 311
323 323 323 322 321 321 320 320 319 318 318 317 316 316 315 315 315 314 314 314 313 312 312 311 312 313 313 313 312 312 311 310 308 308 307 307 308 310 310 311 311 310
322 322 321 320 319 318 317 316 316 315 315 314 313 312 312 312 311 311 311 310 310 310 309 309 310 311 312 312 312 311 311 310 309 308 307 306 306 307 308 309 310 309
321 320 319 317 316 315 314 314 313 313 313 312 311 311 311 310 310 309 309 309 309 309 308 307 308 310 312 312 312 312 311 311 310 309 308 307 306 307 307 308 308 308
319 317 316 314 314 313 312 312 312 312 312 311 310 310 309 309 309 308 308 308 308 308 308 307 307 309 310 311 312 312 312 311 311 310 309 308 307 308 308 307 307 306
315 314 313 312 312 312 311 312 311 312 312 311 310 310 309 309 309 308 309 309 309 309 309 308 307 308 310 309 310 312 312 311 311 310 309 309 308 309 308 307 306 305
312 311 311 311 311 311 311 311 311 311 311 311 311 310 309 309 309 309 309 309 309 309 309 308 307 308 309 308 308 310 311 311 311 311 310 309 309 309 308 307 305 304
310 310 311 311 311 311 311 311 311 310 310 310 310 309 308 308 308 307 307 307 307 307 307 307 307 307 307 306 306 307 309 310 311 310 310 310 310 309 308 306 305 304
310 311 311 311 311 311 310 311 310 310 309 308 307 306 306 305 305 305 305 304 304 305 305 305 306 306 306 305 304 304 306 308 308 308 308 309 309 307 306 306 305 305